コワルスキー彗星

425P/Kowalski (2021)

English version
Home page
Updated on March 27, 2022

---------------------------------------------------------------------

・ プロフィール

符号 425P/2021 O2
検出日 2021年7月20日
検出光度 20.4等
検出者 Pan-STARRS 1 telescope (Haleakala)

・ 写真集

・ 軌道要素

Epoch 2022 Jan. 21.0 TT = JDT 2459600.5
T 2021 Sept. 20.45525 TT                                Rudenko
q   2.8901230            (2000.0)            P               Q
n   0.06188073     Peri.  200.74415     +0.63885292     -0.75616380
a   6.3304185      Node   210.08682     +0.73967020     +0.65436735
e   0.5434547      Incl.   16.42077     +0.21155362     -0.00443660
P  15.9
From 389 observations 2005 Sept. 30-2022 Jan. 31, mean residual 0".7.

・ 光度変化

        m1 = 2.0 + 5 logΔ + 30.0 log r

---------------------------------------------------------------------

軌道要素はM.P.E.C. 2022-C56に掲載されたものです。
光度グラフはComet for Windowsで作成したものです。

---------------------------------------------------------------------

Copyright(C) Seiichi Yoshida (comet@aerith.net). All rights reserved.